CW4541 Weather Reports


Display with metric or nautical units.
time (UTC)temp
F
wind
direction
speed
MPH
gust
MPH
rain 1hr
in
rain 24hr
in
rain mn
in
humidity
%
barometer
mb
20260905200606 80 257 1.0 7.0 0.00 0.00 0.00 16 1021.8
20260905200111 79 197 3.0 8.0 0.00 0.00 0.00 16 1021.8
20260905190606 78 169 3.0 8.0 0.00 0.00 0.00 19 1022.2
20260905190111 78 142 2.0 9.0 0.00 0.00 0.00 19 1022.3
20260905180605 76 222 2.0 10.0 0.00 0.00 0.00 23 1022.7
20260905180112 76 198 2.0 10.0 0.00 0.00 0.00 23 1022.9
20260905170605 72 16 1.0 6.0 0.00 0.00 0.00 30 1023.3
20260905170112 71 13 1.0 6.0 0.00 0.00 0.00 30 1023.4
20260905160606 71 170 1.0 8.0 0.00 0.00 0.00 32 1023.2
20260905150606 67 13 2.0 7.0 0.00 0.00 0.00 35 1023.0
20260905140111 58 20 3.0 6.0 0.00 0.00 0.00 49 1022.8
20260905130605 56 98 1.0 5.0 0.00 0.00 0.00 50 1022.4
20260905130111 56 86 0.0 6.0 0.00 0.00 0.00 49 1022.3
20260905120606 56 89 1.0 6.0 0.00 0.00 0.00 50 1022.0
20260905110605 53 124 0.0 0.0 0.00 0.00 0.00 50 1022.0
20260905100111 53 121 0.0 1.0 0.00 0.00 0.00 47 1021.6
20260905090605 53 133 0.0 0.0 0.00 0.00 0.00 43 1021.6
20260905090111 54 135 0.0 0.0 0.00 0.00 0.00 43 1021.6
20260905080605 55 135 0.0 0.0 0.00 0.00 0.00 39 1021.4
20260905080111 55 136 0.0 0.0 0.00 0.00 0.00 39 1021.5
20260905070605 56 129 0.0 1.0 0.00 0.00 0.00 36 1021.3
20260905070111 57 127 0.0 1.0 0.00 0.00 0.00 36 1021.1
20260905060605 56 113 0.0 0.0 0.00 0.00 0.00 35 1021.1
20260905060112 55 119 0.0 0.0 0.00 0.00 0.00 36 1021.2
20260905050606 55 31 0.0 0.0 0.00 0.00 0.00 33 1021.3
20260905050113 56 34 0.0 0.0 0.00 0.00 0.00 33 1021.4
20260905040606 59 26 0.0 0.0 0.00 0.00 0.00 29 1021.4
20260905030606 62 24 0.0 1.0 0.00 0.00 0.00 23 1020.7
20260905030112 62 24 0.0 1.0 0.00 0.00 0.00 23 1020.7
20260905020608 67 23 0.0 0.0 0.00 0.00 0.00 18 1019.7
20260905020112 68 16 0.0 0.0 0.00 0.00 0.00 17 1019.7
20260905010606 75 13 1.0 6.0 0.00 0.00 0.00 12 1019.4
20260905010112 76 155 1.0 5.0 0.00 0.00 0.00 12 1019.4
20260905000606 78 156 2.0 8.0 0.00 0.00 0.00 13 1019.4
20260904230607 78 118 1.0 12.0 0.00 0.00 0.00 16 1019.3
20260904230112 78 173 3.0 12.0 0.00 0.00 0.00 15 1019.4
20260904220606 79 165 3.0 9.0 0.00 0.00 0.00 17 1019.6
20260904220111 79 200 5.0 9.0 0.00 0.00 0.00 17 1019.6
20260904210112 79 155 7.0 12.0 0.00 0.00 0.00 15 1020.0